www.pogodaiklimat.ru

Погода и климат >> Архив погоды >> Австрия >> Маттзе


ПОГОДА в Маттзе

  • Прогноз погоды в Маттзе
  • Монитор погоды в Маттзе

АРХИВ ПОГОДЫ в Маттзе

Время (UTC), дата Ветер
(напр.,м/с)
 
Видим.   Явления Облачность Т
(С)
Тd
(С)
f
(%)
Тe
(С)
Тes
(С)
Комфортность P
(гПа)
Po
(гПа)
Тmin
(С)
Tmax
(С)
R
(мм)
R24
(мм)
S
(см)
10 13.08 штиль 0 н/о н/о +16.8 +12.9 78 +17 +17 1019.3 961.1 0.0
11 13.08 штиль 0 н/о н/о +17.3 +13.2 77 +17 +17 1019.1 961.0 0.0
12 13.08 ЮЗ 1 н/о н/о +17.6 +12.7 73 +19 +19 1018.5 960.5 0.0
13 13.08 З 1 н/о н/о +18.3 +12.8 70 +20 +20 1018.0 960.1
14 13.08 штиль 0 н/о н/о +17.6 +13.5 77 +18 +18 1017.8 959.8
15 13.08 ЮВ 1 н/о н/о +17.5 +13.9 79 +19 +19 1017.2 959.2
16 13.08 ЮВ 1 н/о н/о +16.9 +13.6 81 +18 +18 1017.2 959.1 0.0
17 13.08 штиль 0 н/о н/о +16.7 +12.9 78 +17 +17 1017.1 959.0 0.0
18 13.08 С 2 н/о осадки н/о +14.9 +12.9 88 +15 +15 1018.6 960.0 +14.9 +18.6 2
19 13.08 СВ 1 н/о н/о +13.4 +12.5 94 +13 +13 1020.2 961.2 10
20 13.08 Ю 1 н/о в посл. час осадки н/о +12.9 +12.0 94 +13 +13 1020.6 961.5 2
21 13.08 ЮЗ 1 н/о осадки н/о +12.8 +11.8 94 +13 +13 1019.9 960.8 12
22 13.08 ЮЗ 1 н/о в посл. час осадки н/о +12.7 +11.6 93 +13 +13 1020.1 961.0 0.0
23 13.08 ЮЗ 2 н/о в посл. час осадки н/о +12.3 +11.2 93 +11 +11 1020.2 961.0 0.2
00 14.08 ЮЗ 2 н/о осадки {ливн. осадки} н/о +12.3 +10.8 91 +11 +11 1019.9 960.7 12
01 14.08 ЮЗ 2 н/о осадки н/о +12.3 +11.1 92 +11 +11 1019.9 960.7 0.3
02 14.08 ЮЗ 2 н/о осадки н/о +12.2 +11.1 93 +11 +11 1019.9 960.7 0.5
03 14.08 ЮЗ 2 н/о в посл. час осадки н/о +12.5 +11.1 91 +12 +12 1019.6 960.5 0.9
04 14.08 ЮЗ 1 н/о н/о +12.7 +11.6 93 +13 +13 1019.8 960.7
05 14.08 ЮЗ 1 н/о н/о +12.9 +11.8 93 +13 +13 1020.1 961.0
06 14.08 ЮЗ 1 н/о {осадки} н/о +13.3 +11.9 91 +13 +13 1020.3 961.3 +12.2 +16.1 13
07 14.08 ЮЗ 1 н/о н/о +14.5 +12.3 87 +15 +15 1020.0 961.3
08 14.08 З 1 н/о н/о +15.2 +12.3 83 +16 +16 1020.1 961.5
09 14.08 ЮЗ 1 н/о н/о +16.1 +12.1 77 +17 +17 1019.9 961.5
10 14.08 ЮЗ 1 н/о н/о +16.2 +11.2 72 +17 +17 1019.8 961.4
11 14.08 ЮЗ 1 н/о н/о +18.3 +9.9 58 +20 +20 1019.3 961.3
12 14.08 ЮЗ 1 н/о н/о +18.8 +10.3 58 +21 +21 комфорт 1018.9 961.0
13 14.08 З 1 н/о н/о +18.2 +10.4 60 +20 +20 1018.9 960.9 0.0
14 14.08 З 1 н/о н/о +20.3 +9.9 51 +23 +23 комфорт 1018.0 960.4 0.0
15 14.08 З 1 н/о н/о +20.7 +8.7 46 +23 +23 комфорт 1017.6 960.1 0.0
16 14.08 З 1 н/о н/о +20.5 +8.3 45 +23 +23 комфорт 1017.2 959.7
17 14.08 З 1 н/о н/о +19.4 +8.2 48 +21 +21 комфорт 1017.3 959.6
18 14.08 штиль 0 н/о н/о +17.7 +9.3 58 +18 +18 1017.6 959.6 +13.2 +21.2 0.0
19 14.08 Ю 1 н/о н/о +14.8 +10.1 73 +15 +15 1018.4 959.8
20 14.08 Ю 1 н/о н/о +13.6 +9.7 77 +14 +14 1019.0 960.1
21 14.08 ЮВ 1 н/о н/о +12.9 +10.5 85 +13 +13 1019.1 960.1
22 14.08 штиль 0 н/о н/о +12.3 +10.0 86 +12 +12 1019.2 960.0
23 14.08 штиль 0 н/о н/о +12.6 +10.4 86 +12 +12 1019.1 960.0
00 15.08 штиль 0 н/о н/о +12.5 +9.9 84 +12 +12 1018.9 959.8
01 15.08 С 1 н/о н/о +11.8 +9.9 88 +12 +12 1018.5 959.3
02 15.08 штиль 0 н/о н/о +11.7 +10.0 89 +11 +11 1018.0 958.8
03 15.08 С 1 н/о н/о +11.3 +9.5 89 +11 +11 1017.7 958.4
04 15.08 СЗ 1 н/о н/о +11.5 +9.5 88 +11 +11 1017.4 958.2
05 15.08 В 1 н/о н/о +12.2 +9.9 86 +12 +12 1017.2 958.1
06 15.08 СЗ 1 н/о н/о +13.2 +9.7 79 +13 +13 1016.7 957.8 +11.3 +18.1
07 15.08 ЮЗ 1 н/о н/о +15.3 +9.4 68 +16 +16 1015.9 957.5
08 15.08 З 1 н/о н/о +17.1 +10.8 66 +18 +18 1015.3 957.3
09 15.08 ЮЗ 1 н/о н/о +18.8 +11.3 62 +21 +21 комфорт 1014.9 957.3
10 15.08 ЮЗ 1 н/о н/о +20.7 +11.3 55 +24 +24 комфорт 1014.2 957.0 0.0
11 15.08 З 1 н/о н/о +21.9 +11.9 53 +24 +24 комфорт 1013.9 956.9 0.0
12 15.08 З 1 н/о н/о +21.5 +11.9 54 +24 +24 комфорт 1014.1 957.0 0.0
13 15.08 З 4 н/о н/о +20.3 +13.1 63 +22 +22 комфорт 1014.8 957.5 0.0
14 15.08 СЗ 2 н/о в посл. час осадки н/о +18.0 +13.3 74 +19 +19 1015.6 957.8 0.4
15 15.08 С 1 н/о в посл. час осадки н/о +18.1 +13.5 74 +19 +19 1015.1 957.4 0.5
16 15.08 З 1 н/о н/о +19.2 +12.8 66 +21 +21 комфорт 1014.8 957.3
17 15.08 штиль 0 н/о н/о +18.8 +12.2 65 +19 +19 1014.6 957.0
18 15.08 ЮЗ 1 н/о {ливн. осадки} н/о +18.0 +12.8 72 +19 +19 1015.3 957.5 +13.0 +22.6 0.5
19 15.08 ЮЗ 1 н/о н/о +17.6 +13.4 76 +19 +19 1015.7 957.8 0.0
20 15.08 ЮЗ 1 н/о н/о +17.4 +12.6 73 +18 +18 1016.5 958.5
21 15.08 ЮЗ 1 н/о н/о +17.8 +12.0 69 +19 +19 1016.9 959.0 0.0
22 15.08 З 2 н/о н/о +17.3 +12.5 73 +18 +18 1017.3 959.3
23 15.08 З 2 н/о осадки н/о +16.5 +12.4 77 +17 +17 1017.8 959.6 0.0
00 16.08 ЮЗ 1 н/о в посл. час осадки н/о +15.4 +12.5 83 +16 +16 1018.3 959.8 0.1
01 16.08 ЮЗ 1 н/о в посл. час осадки н/о +14.6 +13.1 91 +15 +15 1018.7 960.1 1
02 16.08 ЮЗ 1 н/о в посл. час осадки н/о +15.3 +13.3 88 +16 +16 1018.6 960.1 0.2
03 16.08 З 1 н/о {ливн. осадки} н/о +15.3 +13.1 87 +16 +16 1018.9 960.4 2
04 16.08 З 1 н/о н/о +15.2 +12.6 84 +16 +16 1019.4 960.8
05 16.08 ЮЗ 2 н/о н/о +15.1 +12.2 83 +15 +15 1019.5 960.9 0.0
06 16.08 З 1 н/о в посл. час осадки {ливн. осадки} н/о +14.7 +13.0 90 +15 +15 1020.0 961.3 +14.3 +18.3 2
07 16.08 З 1 н/о в посл. час осадки н/о +15.2 +13.2 88 +16 +16 1020.1 961.5 0.8
08 16.08 З 1 н/о н/о +16.4 +12.9 80 +17 +17 1020.0 961.6
09 16.08 З 2 н/о {осадки} н/о +17.4 +12.5 73 +18 +18 1019.8 961.6 0.8
10 16.08 З 3 н/о н/о +19.1 +11.3 61 +20 +20 1018.9 961.1
11 16.08 СЗ 2 н/о н/о +20.3 +13.0 63 +23 +23 комфорт 1018.3 960.8
12 16.08 З 3 н/о {осадки} н/о +19.1 +12.4 65 +20 +20 1018.6 960.8 0.8
13 16.08 СЗ 2 н/о н/о +21.2 +12.8 59 +23 +23 комфорт 1017.5 960.2
14 16.08 З 1 н/о н/о +22.3 +12.6 54 +25 +25 комфорт 1017.0 959.9
15 16.08 З 1 н/о н/о +21.7 +11.0 51 +24 +24 комфорт 1016.8 959.6 0.0
16 16.08 З 1 н/о н/о +22.2 +10.6 48 +24 +24 комфорт 1016.2 959.1
17 16.08 СВ 2 н/о н/о +19.8 +11.1 57 +22 +22 комфорт 1016.4 958.9
18 16.08 В 1 н/о н/о +18.3 +13.1 72 +20 +20 1016.7 958.9 +14.7 +22.8 0.8
19 16.08 штиль 0 н/о н/о +16.4 +11.7 74 +16 +16 1017.2 959.0
20 16.08 штиль 0 н/о н/о +15.7 +12.4 81 +16 +16 1017.6 959.2
21 16.08 ЮЗ 1 н/о н/о +14.4 +11.5 83 +15 +15 1017.6 959.0
22 16.08 В 1 н/о н/о +13.9 +11.4 85 +14 +14 1017.4 958.7
23 16.08 штиль 0 н/о н/о +13.1 +11.4 89 +13 +13 1017.3 958.4
00 17.08 ЮВ 1 н/о н/о +12.5 +11.1 91 +12 +12 1017.0 958.0
01 17.08 СВ 1 н/о н/о +13.2 +11.9 92 +13 +13 1016.5 957.7
02 17.08 ЮВ 1 н/о н/о +12.0 +10.7 92 +12 +12 1016.7 957.6
03 17.08 Ю 1 н/о н/о +12.5 +11.3 92 +12 +12 1016.5 957.5
04 17.08 З 1 н/о н/о +12.6 +11.3 92 +13 +13 1016.5 957.6
05 17.08 штиль 0 н/о н/о +13.5 +11.4 87 +13 +13 1016.3 957.6
06 17.08 штиль 0 н/о н/о +14.3 +12.0 86 +14 +14 1016.2 957.6 +11.9 +18.8
07 17.08 СЗ 1 н/о н/о +15.6 +11.4 76 +16 +16 1016.1 957.8
08 17.08 штиль 0 н/о н/о +16.9 +12.1 73 +17 +17 1015.8 957.8
09 17.08 СВ 1 н/о н/о +19.3 +12.9 66 +22 +22 комфорт 1015.3 957.8
10 17.08 штиль 0 н/о н/о +21.9 +11.8 53 +24 +24 комфорт 1014.6 957.6 0.0
11 17.08 З 1 н/о н/о +24.0 +11.4 45 +25 +25 комфорт 1013.9 957.3
12 17.08 З 1 н/о н/о +24.9 +14.3 52 +27 +27 жарко 1013.5 957.1 0.0
13 17.08 З 1 н/о н/о +24.5 +12.8 48 +26 +26 жарко 1013.3 956.8 0.0
14 17.08 З 1 н/о н/о +24.2 +13.3 51 +26 +26 жарко 1013.0 956.5
15 17.08 СЗ 1 н/о н/о +24.1 +14.7 56 +27 +27 жарко 1012.7 956.2 0.0
16 17.08 ЮВ 1 н/о н/о +22.5 +14.0 59 +26 +26 жарко 1012.8 956.0 0.0
17 17.08 ЮВ 1 н/о н/о +21.9 +16.2 70 +26 +26 душно 1012.6 955.8 0.0
18 17.08 ЮВ 2 н/о н/о +21.3 +14.7 66 +24 +24 комфорт 1012.5 955.5 +14.0 +25.6 0.0
19 17.08 ЮВ 1 н/о н/о +20.1 +15.0 72 +24 +24 комфорт 1013.2 956.0
20 17.08 штиль 0 н/о н/о +19.7 +14.7 73 +21 +21 комфорт 1013.8 956.5
21 17.08 ЮВ 1 н/о н/о +19.3 +15.3 78 +22 +22 комфорт 1013.3 955.9 0.0
22 17.08 З 1 н/о н/о +19.4 +15.9 80 +22 +22 комфорт 1013.3 956.0
23 17.08 штиль 0 н/о н/о +18.9 +15.8 82 +20 +20 1013.8 956.3
00 18.08 штиль 0 н/о н/о +18.6 +15.8 84 +19 +19 1013.5 956.0 0.0
01 18.08 штиль 0 н/о н/о +18.3 +15.4 83 +19 +19 1013.4 955.8
02 18.08 В 1 н/о н/о +18.4 +16.1 86 +20 +20 1012.4 954.9
03 18.08 штиль 0 н/о н/о +17.9 +15.0 83 +18 +18 1012.1 954.5 0.0
04 18.08 С 1 н/о н/о +17.7 +15.0 84 +19 +19 1012.0 954.4
05 18.08 СВ 1 н/о н/о +17.4 +15.5 89 +18 +18 1011.9 954.3
06 18.08 СВ 1 н/о н/о +18.4 +15.1 81 +20 +20 1012.1 954.6 +17.0 +21.5 0.0
07 18.08 штиль 0 н/о н/о +20.4 +12.7 61 +22 +22 комфорт 1011.8 954.7
08 18.08 ЮЗ 2 н/о н/о +23.3 +13.7 55 +27 +27 душно 1011.5 954.9
09 18.08 ЮЗ 2 н/о н/о +25.8 +13.9 48 +28 +28 жарко 1011.0 954.9
10 18.08 З 1 н/о н/о +27.5 +13.2 41 +29 +29 жарко 1010.4 954.7
11 18.08 З 1 н/о н/о +28.8 +13.0 38 +30 +30 жарко 1010.0 954.5
12 18.08 В 2 н/о н/о +29.3 +20.5 59 +36 +36 очень
душно
1009.4 954.2
13 18.08 В 1 н/о н/о +30.7 +21.3 57 +38 +38 очень
душно
1008.7 953.8
14 18.08 СВ 1 н/о н/о +30.1 +15.5 41 +33 +33 душно 1008.6 953.5
15 18.08 СВ 1 н/о н/о +30.8 +19.0 49 +36 +36 очень
душно
1008.1 953.2
16 18.08 В 1 н/о н/о +30.5 +12.4 33 +31 +31 жарко 1008.3 953.2
17 18.08 З 1 н/о н/о +28.4 +15.9 47 +32 +32 душно 1008.5 953.1
18 18.08 штиль 0 н/о н/о +25.6 +16.7 58 +29 +29 душно 1008.6 952.7 +17.9 +32.0
19 18.08 ЮВ 1 н/о н/о +23.9 +17.9 69 +28 +28 душно 1008.8 952.6
20 18.08 ЮВ 3 н/о н/о +24.1 +16.1 61 +27 +27 жарко 1009.1 952.9
21 18.08 штиль 0 н/о н/о +22.6 +17.3 72 +27 +27 душно 1009.1 952.6
22 18.08 ЮВ 1 н/о н/о +21.5 +16.5 73 +25 +25 комфорт 1009.3 952.6
23 18.08 штиль 0 н/о н/о +20.5 +15.3 72 +23 +23 комфорт 1010.1 953.1
00 19.08 Ю 1 н/о н/о +19.4 +14.6 74 +22 +22 комфорт 1011.7 954.4
01 19.08 ЮЗ 2 н/о н/о +20.6 +14.4 68 +24 +24 комфорт 1013.5 956.3
02 19.08 З 4 н/о н/о +22.1 +16.0 68 +26 +26 душно 1014.9 958.0
03 19.08 СЗ 5 н/о н/о +20.3 +15.5 74 +23 +23 комфорт 1017.2 959.8 0.0
04 19.08 Ю 1 н/о осадки н/о +17.8 +16.1 90 +19 +19 1018.0 960.1 1
05 19.08 Ю 1 н/о осадки н/о +17.3 +15.3 88 +18 +18 1017.8 959.8 0.1
06 19.08 штиль 0 н/о в посл. час осадки {ливн. осадки} н/о +17.9 +16.2 90 +18 +18 1017.9 960.0 +17.1 +25.9 1
07 19.08 В 1 н/о н/о +18.4 +16.1 86 +20 +20 1017.6 959.8
08 19.08 штиль 0 н/о н/о +19.9 +15.9 78 +22 +22 комфорт 1017.1 959.6
09 19.08 З 1 н/о н/о +21.1 +16.0 73 +24 +24 комфорт 1017.3 960.1
10 19.08 З 1 н/о н/о +21.4 +14.6 65 +24 +24 комфорт 1017.6 960.4
11 19.08 штиль 0 н/о н/о +21.5 +15.8 70 +25 +25 комфорт 1017.3 960.1
12 19.08 С 1 н/о н/о +20.9 +16.1 74 +25 +25 комфорт 1017.3 960.0 0.0
13 19.08 СВ 1 н/о в посл. час осадки н/о +21.2 +16.2 73 +25 +25 комфорт 1017.7 960.5 0.0
14 19.08 ЮВ 2 н/о н/о +21.5 +16.3 72 +25 +25 комфорт 1017.3 960.1
15 19.08 штиль 0 н/о {осадки} н/о +21.9 +16.3 71 +26 +26 душно 1017.2 960.1 0.0
16 19.08 ЮВ 2 н/о н/о +22.1 +16.5 71 +26 +26 душно 1016.8 959.8
17 19.08 штиль 0 н/о н/о +21.4 +15.9 71 +25 +25 комфорт 1017.1 959.9
18 19.08 СВ 1 н/о {осадки} н/о +20.8 +16.9 78 +25 +25 комфорт 1017.3 960.0 +17.6 +23.4 0.0
19 19.08 штиль 0 н/о н/о +18.8 +16.4 86 +20 +20 1018.5 960.8
20 19.08 штиль 0 н/о н/о +18.3 +16.0 86 +19 +19 1018.9 961.0
21 19.08 СВ 1 н/о н/о +18.1 +16.8 92 +19 +19 1019.0 961.1
22 19.08 ЮЗ 1 н/о н/о +17.7 +16.0 90 +19 +19 1019.5 961.5
23 19.08 ЮВ 1 н/о н/о +17.7 +16.0 90 +19 +19 1019.4 961.4
00 20.08 ЮЗ 1 н/о н/о +17.8 +16.0 89 +19 +19 1019.2 961.2
01 20.08 ЮЗ 1 н/о н/о +17.6 +15.5 87 +19 +19 1019.2 961.2
02 20.08 штиль 0 н/о н/о +16.9 +15.4 91 +17 +17 1019.7 961.5
03 20.08 штиль 0 н/о н/о +16.5 +15.1 91 +16 +16 1020.5 962.2
04 20.08 ЮВ 1 н/о н/о +16.4 +15.2 93 +17 +17 1020.5 962.2
05 20.08 ЮЗ 1 н/о н/о +16.9 +15.1 89 +18 +18 1020.2 962.0
06 20.08 Ю 1 н/о н/о +17.2 +15.4 89 +18 +18 1019.7 961.6 +16.3 +21.4
07 20.08 штиль 0 н/о н/о +18.6 +16.2 86 +19 +19 1019.1 961.3 0.0
08 20.08 СВ 1 н/о н/о +19.5 +16.7 84 +23 +23 комфорт 1019.0 961.4
09 20.08 С 2 н/о н/о +19.6 +16.6 83 +22 +22 комфорт 1019.1 961.5 0.0
10 20.08 С 1 н/о н/о +20.9 +17.5 81 +26 +26 душно 1018.6 961.3
11 20.08 З 4 н/о н/о +20.9 +17.6 81 +25 +25 комфорт 1018.9 961.6

 

Местоположение метеостанции Маттзе (Австрия): широта 47.98 долгота 13.10 высота над уровнем моря 503 м.

В архиве по умолчанию представлена погода в Маттзе за последнюю неделю. Архивные данные за месяц целиком и за предыдущие месяцы, начиная с января 2011 года, Вы можете получить, выбрав интересующий диапазон дат из раскрывающегося списка и нажав кнопку "Ввод!".


*Определитесь, кто Вы:
робот инопланетянин человек

Внимание! Время в таблицах - всемирное. Для получения местного времени необходимо прибавить поправку, которая равна 1 ч.

Смотрите также архив погоды в соседних городах и на ближайших метеорологических станциях:

Погода в Зальцбурге (Австрия) (21 км)
Погода в Зальцбурге университет (Австрия) (23 км)
Погода в Франкенмаркте (Австрия) (24 км)
Погода в Мондзе (Австрия) (25 км)
Погода в Рансхофене (Австрия) (27 км)
Погода в Санкт-Вольфганге (Австрия) (38 км)
Погода в Рид-им-Иннкрайсе (Австрия) (39 км)
Погода в Киминге (Германия) (44 км)
Погода в Вольфсегг-ам-Хаусрукке (Австрия) (44 км)
Погода в Фойеркогеле (Австрия) (50 км)

Пояснения к столбцам:

Ветер - указаны скорость ветра в м/с - средняя за 10 мин, порывы в срок и между сроками (в фигурных скобках) и направление, откуда дует ветер: С - северный, СВ - северо-восточный, В - восточный, ЮВ - юго-восточный, Ю - южный, ЮЗ - юго-западный, З - западный, СЗ - северо-западный.
Видимость - горизонтальная дальность видимости в метрах или километрах. При видимости от 1 до 10 км при отсутствии осадков обычно наблюдается дымка, при ухудшении видимости до 1 км и менее - туман. В сухую погоду видимость может ухудшаться дымом, пылью или мглою.
Явления - указаны атмосферные явления, наблюдавшиеся в срок или в последний час перед сроком; фигурными скобками обозначены явления, наблюдавшиеся между сроками (за 1-3 часа до срока); квадратными скобками обозначены град или гололедные отложения с указанием их диаметра в мм.
Облачность - указаны через наклонную черту общая и нижняя облачность в баллах и высота нижней границы облаков в метрах; квадратными скобками обозначены формы облаков: Ci - перистые, Cs - перисто-слоистые, Cc - перисто-кучевые, Ac - высококучевые, As - высокослоистые, Sc - слоисто-кучевые, Ns - слоисто-дождевые, Cu - кучевые, Cb - кучево-дождевые. Подробнее классификацию облаков см. в Атласе облаков (PDF).
T - Температура воздуха - температура, измеренная на высоте 2 м над землей.
Td - Температура точки росы - температура, при понижении до которой содержащийся в воздухе водяной пар достигнет насыщения.
f - Относительная влажность воздуха - влажноcть воздуха, измеренная на высоте 2 м над землей.
Te - Эффективная температура - температура, которую ощущает одетый по сезону человек в тени. Характеристика душности погоды. При расчете учитывается влияние влажности воздуха и скорости ветра на теплоощущения человека.
Tes - Эффективная температура на солнце - температура, которую ощущает человек, с поправкой на солнечный нагрев. Характеристика знойности погоды. Зависит от высоты солнца над горизонтом, облачности и скорости ветра. Ночью, в пасмурную погоду, а также при ветре 12 м/с и более поправка равна нулю.
P - Атмосферное давление - приведенное к уровню моря атмосферное давление.
Po - Атмосферное давление - измеренное на уровне метеостанции атмосферное давление.
Tmin - Минимальная температура - минимум температуры воздуха на высоте 2 м над землей.
Tmax - Максимальная температура - максимум температуры воздуха на высоте 2 м над землей.
R - Количество осадков - Количество выпавших осадков за период времени, мм. При наведении курсора мыши на число - период времени, за который выпало указанное количество осадков.
R24 - Количество осадков - Количество выпавших осадков за 24 часа, мм.
S - Снежный покров - Высота снежного покрова, см. При наведении курсора мыши на число - состояние снежного покрова и степень покрытия местности в баллах.